Location: Bluejay Creek
(37.7819°N, 119.6118°W)
Time: 17:47:16
(UTC+00:00)

Cosmos 1939 Rocket - Pass Details

Date: 05 August 2024
Orbit: 511 x 552 km, 97.5° (Epoch: 12 September)

Event Time Altitude Azimuth Distance (km) Brightness Sun altitude
Rises 12:06:52 0° 20° (NNE) 2,637 7.2 -11.2°
Reaches altitude 10° 12:09:03 10° 29° (NNE) 1,750 6.4 -10.9°
Maximum altitude 12:12:36 38° 98° (E) 802 4.2 -10.3°
Drops below altitude 10° 12:16:09 10° 168° (SSE) 1,757 5.2 -9.7°
Sets 12:18:21 0° 176° (S) 2,648 6.0 -9.3°
